Flag for India Past Weather in Thiruvananthapuram, Kerala, India — Yesterday and Last 2 Weeks

Now
90 °F

Scattered clouds.


Feels Like: 105 °F
Forecast: 80 / 87 °F
Wind: 10 mph from Northwest

Location: Thiruvananthapuram

Current Time: May 26, 2016 at 10:21:29 AM

Latest Report: May 26, 2016 at 10:00 AM


Visibility: 3 mi

Pressure: 29.83 "Hg

Humidity: 71%

Dew Point: 79 °F

Location of ThiruvananthapuramLocation

Past Weather in Thiruvananthapuram — Graph

°F

Thiruvananthapuram Temperature Yesterday

Maximum temperature yesterday: 90 °F (at 12:00 PM)
Minimum temperature yesterday: 81 °F (at 2:30 AM)
Average temperature yesterday: 84 °F

High & Low Weather Summary for the Past Weeks

 TemperatureHumidityPressure
High93 °F (May 14, 1:00 PM)100% (May 17, 1:30 AM)29.86 "Hg (May 17, 1:30 AM)
Low75 °F (May 17, 11:30 PM)59% (May 12, 4:00 PM)29.59 "Hg (May 16, 3:30 PM)
Average84 °F84%29.74 "Hg
* Reported May 11 8:30 AM — May 26 9:00 AM, Thiruvananthapuram, Weather by CustomWeather, © 2016

Note: Actual official high and low records may vary slightly from our data, if they occured in-between our weather recording intervals... More about our weather records

Advertising

Thiruvananthapuram Weather History for the Previous 24 Hours

Scroll right to see more
 ConditionsComfort  
Time TempWeatherWind HumidityBarometerVisibility
9:00 AM
Thu, May 26
88 °FHaze.5 mph75%29.83 "Hg3 mi
8:30 AM86 °FHaze.6 mph75%29.83 "Hg2 mi
8:00 AM84 °FHaze.8 mph79%29.80 "Hg2 mi
7:30 AM84 °FThunderstorms. Scattered clouds.5 mph84%29.80 "Hg2 mi
7:00 AM82 °FThunderstorms. Scattered clouds.3 mph84%29.80 "Hg2 mi
6:30 AM81 °FThunderstorms. Passing clouds.3 mph89%29.80 "Hg2 mi
6:00 AM81 °FPassing clouds.3 mph89%29.77 "Hg2 mi
5:30 AM81 °FPassing clouds.No wind89%29.74 "Hg2 mi
5:00 AM81 °FPassing clouds.5 mph89%29.74 "Hg2 mi
4:30 AM81 °FPassing clouds.6 mph89%29.74 "Hg2 mi
4:00 AM82 °FPartly cloudy.7 mph84%29.74 "Hg2 mi
2:30 AM82 °FPartly cloudy.6 mph84%29.74 "Hg2 mi
1:30 AM82 °FPartly cloudy.5 mph84%29.77 "Hg2 mi
12:30 AM81 °FPartly cloudy.6 mph89%29.80 "Hg2 mi
11:30 PM
Wed, May 25
81 °FPartly cloudy.5 mph89%29.80 "Hg2 mi
10:30 PM82 °FPartly cloudy.7 mph84%29.80 "Hg2 mi
10:00 PM82 °FPartly cloudy.8 mph89%29.80 "Hg2 mi
9:30 PM82 °FPartly cloudy.7 mph89%29.80 "Hg2 mi
9:00 PM82 °FPartly cloudy.8 mph89%29.80 "Hg2 mi
8:30 PM82 °FPartly cloudy.6 mph89%29.80 "Hg2 mi
8:00 PM82 °FPartly cloudy.6 mph89%29.80 "Hg2 mi
7:30 PM82 °FPartly cloudy.7 mph89%29.77 "Hg2 mi
7:00 PM84 °FBroken clouds.6 mph84%29.77 "Hg2 mi
6:30 PM84 °FBroken clouds.7 mph84%29.77 "Hg2 mi
6:00 PM84 °FBroken clouds.5 mph84%29.74 "Hg2 mi
5:30 PM84 °FBroken clouds.6 mph84%29.74 "Hg2 mi
5:00 PM84 °FThunderstorms. More clouds than sun.9 mph84%29.74 "Hg2 mi
4:30 PM86 °FThunderstorms. More clouds than sun.8 mph75%29.77 "Hg2 mi
4:00 PM86 °FThunderstorms. More clouds than sun.9 mph75%29.77 "Hg2 mi
3:30 PM86 °FThunderstorms. More clouds than sun.12 mph84%29.77 "Hg2 mi
3:00 PM84 °FBroken clouds.10 mph79%29.77 "Hg2 mi
2:30 PM88 °FThunderstorms. Broken clouds.8 mph79%29.77 "Hg2 mi
1:30 PM86 °FThunderstorms. Broken clouds.9 mph79%29.80 "Hg3 mi
1:00 PM88 °FThunderstorms. Scattered clouds.15 mph75%29.80 "Hg3 mi
12:30 PM86 °FThunderstorms. More clouds than sun.12 mph84%29.83 "Hg3 mi
12:00 PM90 °FBroken clouds.9 mph67%29.83 "Hg3 mi
11:30 AM86 °FBroken clouds.12 mph75%29.83 "Hg3 mi
10:30 AM86 °FBroken clouds.10 mph79%29.83 "Hg3 mi
10:00 AM86 °FBroken clouds.9 mph79%29.83 "Hg3 mi
Weather by CustomWeather, © 2016

See weather overviewHow to use our weather pages